User: anonymous   Login
Location: Newark
(44.9861°N, 0.2536°E)
Time: 01:11:33
(UTC+00:00)
Language:

HuskySat-1 - Orbit

View from above orbital plane
View from above orbital plane
View from above satellite
View from above satellite

Ground track
Ground track

The orbit data is extracted from the following two-line orbital elements,

1 45117U 19071G   20192.65339871  .00000811  00000-0  35906-4 0  9999
2 45117  51.6433 251.1014 0011356 138.9955 221.1883 15.33763062 24683
Epoch (UTC): 10 July 2020 15:40:53
Eccentricity: 0.0011356
inclination: 51.6433°
perigee height: 457 km
apogee height: 472 km
right ascension of ascending node: 251.1014°
argument of perigee: 138.9955°
revolutions per day: 15.33763062
mean anomaly at epoch: 221.1883°
orbit number at epoch: 2468

The dashed part of the orbit path shows where the satellite is in the earth's shadow,  

DLR